Tracking 28895 objects as of 28-May-2024
HD Live streaming from Space Station
objects crossing your sky now

STARLINK-6198

Track STARLINK-6198 now!
10-day predictions
STARLINK-6198 is classified as:


NORAD ID: 56768
Int'l Code: 2023-078B
Perigee: 574.6 km
Apogee: 578.8 km
Inclination: 70.0 °
Period: 96.1 minutes
Semi major axis: 6947 km
RCS: Unknown
Launch date: May 31, 2023
Source: United States (US)
Launch site: AIR FORCE WESTERN TEST RANGE (AFWTR)
Your satellite tracking list
Your tracking list is empty




NASA's NSSDC Master Catalog

Two Line Element Set (TLE):
1 56768U 23078B   24149.17132976 -.00000190  00000-0 -78677-5 0  9990
2 56768  69.9987 164.5913 0003063 267.3410  92.7399 14.99139008 55997
Source of the keplerian elements: AFSPC